Regional Weather Roundup
Issued by NWS

Home | Current Version | Previous Version | Text Only | Print | Product List | Glossary Off
Versions: 1 2 3 4 5 6 7 8 9 10 11 12 13 14 15 16 17 18 19 20 21 22 23 24 25 26 27 28 29 30 31 32 33 34 35 36 37 38 39 40 41 42 43 44 45 46 47 48 49 50

000
ASUS43 KBIS 210210
RWRND

NORTH DAKOTA REGIONAL WEATHER ROUNDUP
NATIONAL WEATHER SERVICE BISMARCK ND
900 PM CDT WED SEP 20 2017

NOTE: "FAIR" INDICATES FEW OR NO CLOUDS BELOW 12,000 FEET WITH NO
SIGNIFICANT WEATHER AND/OR OBSTRUCTIONS TO VISIBILITY.


NDZ001>003-009>011-017-210300-
NORTHWEST NORTH DAKOTA

CITY           SKY/WX    TMP DP  RH WIND       PRES   REMARKS
WILLISTON      PTCLDY    48  40  73 CALM      29.61R
MINOT          CLEAR     52  36  54 SE7       29.65R
MINOT AFB      CLEAR     51  37  57 S7        29.63R
$$

NDZ018>021-031>035-040>046-210300-
SOUTHWEST NORTH DAKOTA

CITY           SKY/WX    TMP DP  RH WIND       PRES   REMARKS
BISMARCK       CLEAR     52  40  63 SE8       29.73R
DICKINSON      CLEAR     50  33  52 S7        29.67S
GARRISON         N/A     53  42  66 SE8       29.68R
HETTINGER ARPT CLEAR     51  35  54 SE5       29.74R
$$

NDZ004>008-012>016-024-026-027-054-210300-
NORTHEAST NORTH DAKOTA

CITY           SKY/WX    TMP DP  RH WIND       PRES   REMARKS
GRAND FORKS    PTCLDY    60  46  59 S12       29.78R
GRND FRKS AFB  CLEAR     57  44  61 S9        29.78R
DEVILS LAKE    CLEAR     61  41  47 S13       29.74R
$$

NDZ022-023-025-028>030-036>039-047>053-210300-
SOUTHEAST NORTH DAKOTA

CITY           SKY/WX    TMP DP  RH WIND       PRES   REMARKS
FARGO          CLEAR     64  42  44 S8        29.82R
JAMESTOWN      CLEAR     53  43  68 S6        29.79R
$$




USA.gov is the U.S. government's official web portal to all federal, state and local government web resources and services.